Date,TemperatureHighF,TemperatureAvgF,TemperatureLowF,DewpointHighF,DewpointAvgF,DewpointLowF,HumidityHigh,HumidityAvg,HumidityLow,PressureMaxIn,PressureMinIn,WindSpeedMaxMPH,WindSpeedAvgMPH,GustSpeedMaxMPH,PrecipitationSumIn
2013-7-1,82,70,57,60,54,49,90,59,35,30.10,30.01,8,2,16,0.00
2013-7-2,84,71,57,61,53,44,83,56,26,30.10,29.99,10,2,14,0.00
2013-7-3,84,72,61,60,53,49,81,53,32,30.07,29.91,4,1,10,0.00
2013-7-4,87,76,62,64,56,52,76,53,32,29.96,29.83,4,1,10,0.00
2013-7-5,90,79,67,64,60,56,82,54,33,29.88,29.75,10,3,22,0.00
2013-7-6,82,76,70,71,65,61,89,70,58,29.85,29.76,9,2,11,0.06
2013-7-7,96,85,73,68,65,62,79,53,32,29.89,29.79,15,4,21,0.07
2013-7-8,98,86,75,70,66,63,72,54,32,29.95,29.83,13,3,16,0.00
2013-7-9,103,90,78,72,68,63,76,52,28,29.91,29.74,11,3,17,0.00
2013-7-10,98,86,71,74,69,65,89,60,35,29.91,29.82,7,1,11,0.03
2013-7-11,90,82,72,74,68,63,80,62,50,29.98,29.82,9,1,19,0.21
2013-7-12,98,85,73,74,68,64,76,58,39,29.89,29.79,6,2,14,0.00
2013-7-13,96,87,76,75,70,68,80,59,44,29.88,29.77,9,2,15,0.00
2013-7-14,85,74,69,75,69,65,96,85,58,30.01,29.81,4,1,21,0.46
2013-7-15,79,71,63,72,66,62,96,85,72,30.12,30.01,6,1,13,0.01
2013-7-16,89,77,65,71,67,63,96,73,51,30.21,30.11,7,1,16,0.02
2013-7-17,91,79,68,75,70,67,96,74,50,30.24,30.11,6,1,9,0.00
2013-7-18,91,81,70,73,69,65,96,69,45,30.13,29.92,7,2,16,0.00
2013-7-19,94,84,72,71,68,66,84,61,40,29.95,29.78,7,2,14,0.00
2013-7-20,96,81,71,72,68,64,94,68,37,29.84,29.71,9,3,16,0.10
2013-7-21,87,78,69,76,72,68,97,82,63,29.82,29.72,7,1,11,0.35
2013-7-22,86,78,73,75,71,63,93,79,56,29.83,29.70,9,1,13,0.10
2013-7-23,91,82,68,78,70,62,96,68,52,29.85,29.68,9,2,27,1.36
2013-7-24,88,77,69,74,68,62,97,76,46,29.98,29.79,10,2,14,0.02
2013-7-25,87,77,69,75,70,64,89,77,62,29.99,29.91,12,1,16,0.00
2013-7-26,85,75,66,73,68,62,98,79,52,30.02,29.91,10,2,17,2.02
2013-7-27,79,70,62,67,60,57,92,71,57,30.06,29.91,8,2,13,0.11
2013-7-28,66,63,60,64,62,59,98,96,92,30.01,29.92,5,1,10,1.82
2013-7-29,84,73,63,77,70,62,94,88,75,29.96,29.78,7,2,14,0.06
2013-7-30,81,75,71,75,72,70,99,91,77,30.02,29.87,4,1,10,0.01
2013-7-31,86,75,66,75,70,66,99,85,60,30.09,29.98,6,1,9,0.00